{"data":{"norad_id":64153,"intl_designator":"2025-112H","name":"STARLINK-34345","alt_names":[],"object_type":"PAYLOAD","status":"ACTIVE","operator":null,"country":"US","launch_date":"2025-05-27","launch_site_code":"AFWTR","launch_vehicle":null,"mission":null,"orbit_class":"UNKNOWN","rcs_meters":null,"size_class":null,"mass_kg":null,"dimensions":null,"purposes":["comms"],"wikipedia_slug":null,"has_3d_model":false,"image_url":null,"decayed_at":null,"tle_current":{"epoch":"2026-05-25T03:30:00.482688Z","epoch_age_seconds":65526,"freshness":"FRESH","line1":"1 64153U 25112H   26145.14583892  .00005356  00000+0  37490-3 0  9992","line2":"2 64153  97.4469 196.5270 0001933 120.5665 239.5753 15.05656891 54819","mean_motion":15.05656891,"eccentricity":0.0001933,"inclination_deg":97.4469,"raan_deg":196.527,"arg_perigee_deg":120.5665,"mean_anomaly_deg":239.5753,"bstar":0.0003749,"rev_number":5481,"period_min":95.639319197324,"perigee_km":548.15090635809,"apogee_km":550.82912696273,"semimajor_km":6927.6270166604,"source":"CELESTRAK","updated_at":"2026-05-25T13:38:20.303579Z"}}}